Year,Month,Day,Hour,Minute,Value (Times are PST for temperature in C)
2021,06,28,00,00,27.10
2021,06,28,00,01,27.10
2021,06,28,00,02,27.10
2021,06,28,00,03,27.10
2021,06,28,00,04,27.10
2021,06,28,00,05,27.20
2021,06,28,00,06,27.20
2021,06,28,00,07,27.20
2021,06,28,00,08,27.20
2021,06,28,00,09,27.20
2021,06,28,00,10,27.10
2021,06,28,00,11,27.00
2021,06,28,00,12,27.00
2021,06,28,00,13,26.90
2021,06,28,00,14,26.90
2021,06,28,00,15,26.90
2021,06,28,00,16,26.90
2021,06,28,00,17,26.90
2021,06,28,00,18,26.80
2021,06,28,00,19,26.80
2021,06,28,00,20,26.80
2021,06,28,00,21,26.70
2021,06,28,00,22,26.70
2021,06,28,00,23,26.60
2021,06,28,00,24,26.60
2021,06,28,00,25,26.60
2021,06,28,00,26,26.50
2021,06,28,00,27,26.50
2021,06,28,00,28,26.40
2021,06,28,00,29,26.50
2021,06,28,00,30,26.50
2021,06,28,00,31,26.60
2021,06,28,00,32,26.60
2021,06,28,00,33,26.50
2021,06,28,00,34,26.50
2021,06,28,00,35,26.40
2021,06,28,00,36,26.40
2021,06,28,00,37,26.30
2021,06,28,00,38,26.30
2021,06,28,00,39,26.30
2021,06,28,00,40,26.30
2021,06,28,00,41,26.20
2021,06,28,00,42,26.20
2021,06,28,00,43,26.20
2021,06,28,00,44,26.10
2021,06,28,00,45,26.10
2021,06,28,00,46,26.10
2021,06,28,00,47,26.10
2021,06,28,00,48,26.10
2021,06,28,00,49,26.00
2021,06,28,00,50,26.00
2021,06,28,00,51,25.90
2021,06,28,00,52,25.90
2021,06,28,00,53,25.80
2021,06,28,00,54,25.80
2021,06,28,00,55,25.80
2021,06,28,00,56,25.80
2021,06,28,00,57,25.70
2021,06,28,00,58,25.70
2021,06,28,00,59,25.70
2021,06,28,01,00,25.60
2021,06,28,01,01,25.60
2021,06,28,01,02,25.60
2021,06,28,01,03,25.60
2021,06,28,01,04,25.50
2021,06,28,01,05,25.50
2021,06,28,01,06,25.50
2021,06,28,01,07,25.40
2021,06,28,01,08,25.40
2021,06,28,01,09,25.40
2021,06,28,01,10,25.40
2021,06,28,01,11,25.30
2021,06,28,01,12,25.30
2021,06,28,01,13,25.30
2021,06,28,01,14,25.30
2021,06,28,01,15,25.30
2021,06,28,01,16,25.30
2021,06,28,01,17,25.30
2021,06,28,01,18,25.30
2021,06,28,01,19,25.30
2021,06,28,01,20,25.30
2021,06,28,01,21,25.30
2021,06,28,01,22,25.30
2021,06,28,01,23,25.30
2021,06,28,01,24,25.30
2021,06,28,01,25,25.30
2021,06,28,01,26,25.30
2021,06,28,01,27,25.30
2021,06,28,01,28,25.30
2021,06,28,01,29,25.30
2021,06,28,01,30,25.30
2021,06,28,01,31,25.30
2021,06,28,01,32,25.30
2021,06,28,01,33,25.30
2021,06,28,01,34,25.20
2021,06,28,01,35,25.20
2021,06,28,01,36,25.20
2021,06,28,01,37,25.20
2021,06,28,01,38,25.20
2021,06,28,01,39,25.10
2021,06,28,01,40,25.10
2021,06,28,01,41,25.00
2021,06,28,01,42,25.00
2021,06,28,01,43,24.90
2021,06,28,01,44,24.90
2021,06,28,01,45,24.80
2021,06,28,01,46,24.80
2021,06,28,01,47,24.80
2021,06,28,01,48,24.80
2021,06,28,01,49,24.80
2021,06,28,01,50,24.70
2021,06,28,01,51,24.70
2021,06,28,01,52,24.60
2021,06,28,01,53,24.60
2021,06,28,01,54,24.60
2021,06,28,01,55,24.50
2021,06,28,01,56,24.50
2021,06,28,01,57,24.50
2021,06,28,01,58,24.50
2021,06,28,01,59,24.40
2021,06,28,02,00,24.40
2021,06,28,02,01,24.40
2021,06,28,02,02,24.30
2021,06,28,02,03,24.30
2021,06,28,02,04,24.30
2021,06,28,02,05,24.30
2021,06,28,02,06,24.30
2021,06,28,02,07,24.30
2021,06,28,02,08,24.30
2021,06,28,02,09,24.30
2021,06,28,02,10,24.30
2021,06,28,02,11,24.30
2021,06,28,02,12,24.30
2021,06,28,02,13,24.30
2021,06,28,02,14,24.20
2021,06,28,02,15,24.20
2021,06,28,02,16,24.20
2021,06,28,02,17,24.20
2021,06,28,02,18,24.10
2021,06,28,02,19,24.10
2021,06,28,02,20,24.10
2021,06,28,02,21,24.10
2021,06,28,02,22,24.00
2021,06,28,02,23,24.00
2021,06,28,02,24,24.00
2021,06,28,02,25,23.90
2021,06,28,02,26,23.90
2021,06,28,02,27,23.90
2021,06,28,02,28,23.80
2021,06,28,02,29,23.80
2021,06,28,02,30,23.80
2021,06,28,02,31,23.80
2021,06,28,02,32,23.80
2021,06,28,02,33,23.80
2021,06,28,02,34,23.80
2021,06,28,02,35,23.70
2021,06,28,02,36,23.70
2021,06,28,02,37,23.70
2021,06,28,02,38,23.80
2021,06,28,02,39,23.80
2021,06,28,02,40,23.80
2021,06,28,02,41,23.80
2021,06,28,02,42,23.80
2021,06,28,02,43,23.80
2021,06,28,02,44,23.80
2021,06,28,02,45,23.80
2021,06,28,02,46,23.80
2021,06,28,02,47,23.70
2021,06,28,02,48,23.70
2021,06,28,02,49,23.70
2021,06,28,02,50,23.70
2021,06,28,02,51,23.70
2021,06,28,02,52,23.60
2021,06,28,02,53,23.60
2021,06,28,02,54,23.60
2021,06,28,02,55,23.60
2021,06,28,02,56,23.50
2021,06,28,02,57,23.50
2021,06,28,02,58,23.50
2021,06,28,02,59,23.50
2021,06,28,03,00,23.50
2021,06,28,03,01,23.40
2021,06,28,03,02,23.40
2021,06,28,03,03,23.40
2021,06,28,03,04,23.40
2021,06,28,03,05,23.40
2021,06,28,03,06,23.40
2021,06,28,03,07,23.30
2021,06,28,03,08,23.30
2021,06,28,03,09,23.30
2021,06,28,03,10,23.30
2021,06,28,03,11,23.30
2021,06,28,03,12,23.30
2021,06,28,03,13,23.30
2021,06,28,03,14,23.30
2021,06,28,03,15,23.30
2021,06,28,03,16,23.30
2021,06,28,03,17,23.30
2021,06,28,03,18,23.20
2021,06,28,03,19,23.20
2021,06,28,03,20,23.20
2021,06,28,03,21,23.20
2021,06,28,03,22,23.20
2021,06,28,03,23,23.30
2021,06,28,03,24,23.30
2021,06,28,03,25,23.30
2021,06,28,03,26,23.30
2021,06,28,03,27,23.30
2021,06,28,03,28,23.30
2021,06,28,03,29,23.30
2021,06,28,03,30,23.30
2021,06,28,03,31,23.30
2021,06,28,03,32,23.30
2021,06,28,03,33,23.30
2021,06,28,03,34,23.30
2021,06,28,03,35,23.30
2021,06,28,03,36,23.30
2021,06,28,03,37,23.20
2021,06,28,03,38,23.20
2021,06,28,03,39,23.20
2021,06,28,03,40,23.20
2021,06,28,03,41,23.10
2021,06,28,03,42,23.10
2021,06,28,03,43,23.00
2021,06,28,03,44,23.00
2021,06,28,03,45,22.90
2021,06,28,03,46,22.90
2021,06,28,03,47,22.90
2021,06,28,03,48,22.90
2021,06,28,03,49,22.90
2021,06,28,03,50,22.90
2021,06,28,03,51,22.90
2021,06,28,03,52,22.90
2021,06,28,03,53,22.90
2021,06,28,03,54,22.90
2021,06,28,03,55,22.90
2021,06,28,03,56,22.90
2021,06,28,03,57,22.90
2021,06,28,03,58,22.90
2021,06,28,03,59,22.90
2021,06,28,04,00,22.90
2021,06,28,04,01,22.90
2021,06,28,04,02,22.90
2021,06,28,04,03,22.90
2021,06,28,04,04,22.90
2021,06,28,04,05,22.90
2021,06,28,04,06,22.90
2021,06,28,04,07,22.90
2021,06,28,04,08,22.90
2021,06,28,04,09,22.90
2021,06,28,04,10,22.90
2021,06,28,04,11,22.90
2021,06,28,04,12,22.90
2021,06,28,04,13,22.90
2021,06,28,04,14,22.90
2021,06,28,04,15,22.90
2021,06,28,04,16,22.90
2021,06,28,04,17,22.90
2021,06,28,04,18,22.90
2021,06,28,04,19,22.90
2021,06,28,04,20,22.80
2021,06,28,04,21,22.80
2021,06,28,04,22,22.80
2021,06,28,04,23,22.80
2021,06,28,04,24,22.80
2021,06,28,04,25,22.80
2021,06,28,04,26,22.70
2021,06,28,04,27,22.70
2021,06,28,04,28,22.70
2021,06,28,04,29,22.70
2021,06,28,04,30,22.60
2021,06,28,04,31,22.60
2021,06,28,04,32,22.50
2021,06,28,04,33,22.50
2021,06,28,04,34,22.40
2021,06,28,04,35,22.40
2021,06,28,04,36,22.40
2021,06,28,04,37,22.40
2021,06,28,04,38,22.30
2021,06,28,04,39,22.30
2021,06,28,04,40,22.30
2021,06,28,04,41,22.30
2021,06,28,04,42,22.30
2021,06,28,04,43,22.30
2021,06,28,04,44,22.30
2021,06,28,04,45,22.30
2021,06,28,04,46,22.30
2021,06,28,04,47,22.30
2021,06,28,04,48,22.30
2021,06,28,04,49,22.30
2021,06,28,04,50,22.30
2021,06,28,04,51,22.30
2021,06,28,04,52,22.30
2021,06,28,04,53,22.30
2021,06,28,04,54,22.30
2021,06,28,04,55,22.30
2021,06,28,04,56,22.30
2021,06,28,04,57,22.20
2021,06,28,04,58,22.20
2021,06,28,04,59,22.20
2021,06,28,05,00,22.20
2021,06,28,05,01,22.20
2021,06,28,05,02,22.20
2021,06,28,05,03,22.20
2021,06,28,05,04,22.20
2021,06,28,05,05,22.20
2021,06,28,05,06,22.20
2021,06,28,05,07,22.20
2021,06,28,05,08,22.20
2021,06,28,05,09,22.20
2021,06,28,05,10,22.20
2021,06,28,05,11,22.20
2021,06,28,05,12,22.20
2021,06,28,05,13,22.20
2021,06,28,05,14,22.20
2021,06,28,05,15,22.20
2021,06,28,05,16,22.20
2021,06,28,05,17,22.20
2021,06,28,05,18,22.20
2021,06,28,05,19,22.20
2021,06,28,05,20,22.20
2021,06,28,05,21,22.20
2021,06,28,05,22,22.20
2021,06,28,05,23,22.20
2021,06,28,05,24,22.20
2021,06,28,05,25,22.20
2021,06,28,05,26,22.20
2021,06,28,05,27,22.20
2021,06,28,05,28,22.20
2021,06,28,05,29,22.20
2021,06,28,05,30,22.20
2021,06,28,05,31,22.20
2021,06,28,05,32,22.20
2021,06,28,05,33,22.20
2021,06,28,05,34,22.20
2021,06,28,05,35,22.20
2021,06,28,05,36,22.20
2021,06,28,05,37,22.20
2021,06,28,05,38,22.20
2021,06,28,05,39,22.20
2021,06,28,05,40,22.20
2021,06,28,05,41,22.20
2021,06,28,05,42,22.20
2021,06,28,05,43,22.20
2021,06,28,05,44,22.20
2021,06,28,05,45,22.20
2021,06,28,05,46,22.30
2021,06,28,05,47,22.30
2021,06,28,05,48,22.30
2021,06,28,05,49,22.30
2021,06,28,05,50,22.30
2021,06,28,05,51,22.40
2021,06,28,05,52,22.40
2021,06,28,05,53,22.40
2021,06,28,05,54,22.50
2021,06,28,05,55,22.50
2021,06,28,05,56,22.50
2021,06,28,05,57,22.60
2021,06,28,05,58,22.60
2021,06,28,05,59,22.60
2021,06,28,06,00,22.60
2021,06,28,06,01,22.60
2021,06,28,06,02,22.70
2021,06,28,06,03,22.70
2021,06,28,06,04,22.80
2021,06,28,06,05,22.80
2021,06,28,06,06,22.80
2021,06,28,06,07,22.90
2021,06,28,06,08,22.90
2021,06,28,06,09,22.90
2021,06,28,06,10,23.00
2021,06,28,06,11,23.00
2021,06,28,06,12,23.10
2021,06,28,06,13,23.10
2021,06,28,06,14,23.10
2021,06,28,06,15,23.10
2021,06,28,06,16,23.10
2021,06,28,06,17,23.20
2021,06,28,06,18,23.20
2021,06,28,06,19,23.20
2021,06,28,06,20,23.30
2021,06,28,06,21,23.30
2021,06,28,06,22,23.40
2021,06,28,06,23,23.50
2021,06,28,06,24,23.50
2021,06,28,06,25,23.60
2021,06,28,06,26,23.70
2021,06,28,06,27,23.70
2021,06,28,06,28,23.80
2021,06,28,06,29,23.90
2021,06,28,06,30,23.90
2021,06,28,06,31,24.00
2021,06,28,06,32,24.10
2021,06,28,06,33,24.10
2021,06,28,06,34,24.20
2021,06,28,06,35,24.20
2021,06,28,06,36,24.30
2021,06,28,06,37,24.40
2021,06,28,06,38,24.40
2021,06,28,06,39,24.50
2021,06,28,06,40,24.60
2021,06,28,06,41,24.60
2021,06,28,06,42,24.70
2021,06,28,06,43,24.70
2021,06,28,06,44,24.80
2021,06,28,06,45,24.80
2021,06,28,06,46,24.80
2021,06,28,06,47,24.90
2021,06,28,06,48,24.90
2021,06,28,06,49,25.00
2021,06,28,06,50,25.00
2021,06,28,06,51,25.00
2021,06,28,06,52,25.10
2021,06,28,06,53,25.10
2021,06,28,06,54,25.20
2021,06,28,06,55,25.20
2021,06,28,06,56,25.30
2021,06,28,06,57,25.30
2021,06,28,06,58,25.40
2021,06,28,06,59,25.40
2021,06,28,07,00,25.40
2021,06,28,07,01,25.50
2021,06,28,07,02,25.50
2021,06,28,07,03,25.60
2021,06,28,07,04,25.70
2021,06,28,07,05,25.80
2021,06,28,07,06,25.90
2021,06,28,07,07,26.00
2021,06,28,07,08,26.10
2021,06,28,07,09,26.20
2021,06,28,07,10,26.30
2021,06,28,07,11,26.40
2021,06,28,07,12,26.50
2021,06,28,07,13,26.50
2021,06,28,07,14,26.60
2021,06,28,07,15,26.70
2021,06,28,07,16,26.80
2021,06,28,07,17,26.80
2021,06,28,07,18,26.80
2021,06,28,07,19,26.80
2021,06,28,07,20,26.80
2021,06,28,07,21,26.80
2021,06,28,07,22,26.80
2021,06,28,07,23,26.80
2021,06,28,07,24,26.80
2021,06,28,07,25,26.70
2021,06,28,07,26,26.70
2021,06,28,07,27,26.70
2021,06,28,07,28,26.70
2021,06,28,07,29,26.70
2021,06,28,07,30,26.70
2021,06,28,07,31,26.70
2021,06,28,07,32,26.70
2021,06,28,07,33,26.80
2021,06,28,07,34,26.80
2021,06,28,07,35,26.80
2021,06,28,07,36,26.90
2021,06,28,07,37,27.00
2021,06,28,07,38,27.10
2021,06,28,07,39,27.20
2021,06,28,07,40,27.20
2021,06,28,07,41,27.30
2021,06,28,07,42,27.40
2021,06,28,07,43,27.50
2021,06,28,07,44,27.50
2021,06,28,07,45,27.70
2021,06,28,07,46,27.80
2021,06,28,07,47,27.80
2021,06,28,07,48,27.90
2021,06,28,07,49,27.90
2021,06,28,07,50,28.00
2021,06,28,07,51,28.00
2021,06,28,07,52,27.90
2021,06,28,07,53,27.90
2021,06,28,07,54,27.90
2021,06,28,07,55,27.90
2021,06,28,07,56,27.90
2021,06,28,07,57,27.90
2021,06,28,07,58,27.90
2021,06,28,07,59,27.90
2021,06,28,08,00,27.90
2021,06,28,08,01,27.90
2021,06,28,08,02,27.90
2021,06,28,08,03,27.90
2021,06,28,08,04,27.80
2021,06,28,08,05,27.80
2021,06,28,08,06,27.80
2021,06,28,08,07,27.80
2021,06,28,08,08,27.80
2021,06,28,08,09,27.90
2021,06,28,08,10,27.90
2021,06,28,08,11,27.90
2021,06,28,08,12,27.90
2021,06,28,08,13,27.90
2021,06,28,08,14,27.90
2021,06,28,08,15,27.90
2021,06,28,08,16,27.80
2021,06,28,08,17,27.80
2021,06,28,08,18,27.70
2021,06,28,08,19,27.60
2021,06,28,08,20,27.50
2021,06,28,08,21,27.40
2021,06,28,08,22,27.30
2021,06,28,08,23,27.30
2021,06,28,08,24,27.30
2021,06,28,08,25,27.30
2021,06,28,08,26,27.30
2021,06,28,08,27,27.30
2021,06,28,08,28,27.30
2021,06,28,08,29,27.20
2021,06,28,08,30,27.10
2021,06,28,08,31,27.00
2021,06,28,08,32,27.00
2021,06,28,08,33,26.90
2021,06,28,08,34,26.90
2021,06,28,08,35,26.80
2021,06,28,08,36,26.80
2021,06,28,08,37,26.90
2021,06,28,08,38,26.90
2021,06,28,08,39,26.90
2021,06,28,08,40,26.90
2021,06,28,08,41,26.90
2021,06,28,08,42,26.90
2021,06,28,08,43,26.80
2021,06,28,08,44,26.80
2021,06,28,08,45,26.80
2021,06,28,08,46,26.80
2021,06,28,08,47,26.80
2021,06,28,08,48,26.90
2021,06,28,08,49,26.90
2021,06,28,08,50,26.90
2021,06,28,08,51,26.90
2021,06,28,08,52,26.90
2021,06,28,08,53,27.00
2021,06,28,08,54,27.10
2021,06,28,08,55,27.20
2021,06,28,08,56,27.40
2021,06,28,08,57,27.50
2021,06,28,08,58,27.50
2021,06,28,08,59,27.60
2021,06,28,09,00,27.60
2021,06,28,09,01,27.60
2021,06,28,09,02,27.60
2021,06,28,09,03,27.70
2021,06,28,09,04,27.70
2021,06,28,09,05,27.80
2021,06,28,09,06,27.80
2021,06,28,09,07,27.80
2021,06,28,09,08,27.80
2021,06,28,09,09,27.90
2021,06,28,09,10,28.00
2021,06,28,09,11,28.00
2021,06,28,09,12,28.00
2021,06,28,09,13,28.00
2021,06,28,09,14,28.00
2021,06,28,09,15,28.10
2021,06,28,09,16,28.10
2021,06,28,09,17,28.20
2021,06,28,09,18,28.20
2021,06,28,09,19,28.30
2021,06,28,09,20,28.40
2021,06,28,09,21,28.40
2021,06,28,09,22,28.50
2021,06,28,09,23,28.50
2021,06,28,09,24,28.50
2021,06,28,09,25,28.50
2021,06,28,09,26,28.50
2021,06,28,09,27,28.50
2021,06,28,09,28,28.40
2021,06,28,09,29,28.40
2021,06,28,09,30,28.50
2021,06,28,09,31,28.60
2021,06,28,09,32,28.60
2021,06,28,09,33,28.60
2021,06,28,09,34,28.70
2021,06,28,09,35,28.70
2021,06,28,09,36,28.70
2021,06,28,09,37,28.80
2021,06,28,09,38,28.80
2021,06,28,09,39,28.80
2021,06,28,09,40,28.80
2021,06,28,09,41,28.80
2021,06,28,09,42,28.90
2021,06,28,09,43,28.90
2021,06,28,09,44,28.90
2021,06,28,09,45,28.80
2021,06,28,09,46,28.80
2021,06,28,09,47,28.70
2021,06,28,09,48,28.70
2021,06,28,09,49,28.70
2021,06,28,09,50,28.70
2021,06,28,09,51,28.60
2021,06,28,09,52,28.60
2021,06,28,09,53,28.50
2021,06,28,09,54,28.40
2021,06,28,09,55,28.40
2021,06,28,09,56,28.30
2021,06,28,09,57,28.30
2021,06,28,09,58,28.40
2021,06,28,09,59,28.40
2021,06,28,10,00,28.50
2021,06,28,10,01,28.60
2021,06,28,10,02,28.60
2021,06,28,10,03,28.60
2021,06,28,10,04,28.70
2021,06,28,10,05,28.70
2021,06,28,10,06,28.60
2021,06,28,10,07,28.60
2021,06,28,10,08,28.50
2021,06,28,10,09,28.30
2021,06,28,10,10,28.20
2021,06,28,10,11,28.10
2021,06,28,10,12,28.10
2021,06,28,10,13,28.10
2021,06,28,10,14,28.10
2021,06,28,10,15,28.10
2021,06,28,10,16,28.10
2021,06,28,10,17,28.10
2021,06,28,10,18,28.20
2021,06,28,10,19,28.20
2021,06,28,10,20,28.30
2021,06,28,10,21,28.30
2021,06,28,10,22,28.30
2021,06,28,10,23,28.30
2021,06,28,10,24,28.40
2021,06,28,10,25,28.40
2021,06,28,10,26,28.30
2021,06,28,10,27,28.30
2021,06,28,10,28,28.40
2021,06,28,10,29,28.40
2021,06,28,10,30,28.50
2021,06,28,10,31,28.50
2021,06,28,10,32,28.50
2021,06,28,10,33,28.50
2021,06,28,10,34,28.50
2021,06,28,10,35,28.40
2021,06,28,10,36,28.50
2021,06,28,10,37,28.50
2021,06,28,10,38,28.60
2021,06,28,10,39,28.70
2021,06,28,10,40,28.70
2021,06,28,10,41,28.70
2021,06,28,10,42,28.80
2021,06,28,10,43,28.80
2021,06,28,10,44,28.90
2021,06,28,10,45,29.00
2021,06,28,10,46,29.10
2021,06,28,10,47,29.20
2021,06,28,10,48,29.20
2021,06,28,10,49,29.30
2021,06,28,10,50,29.30
2021,06,28,10,51,29.40
2021,06,28,10,52,29.40
2021,06,28,10,53,29.50
2021,06,28,10,54,29.60
2021,06,28,10,55,29.60
2021,06,28,10,56,29.60
2021,06,28,10,57,29.60
2021,06,28,10,58,29.50
2021,06,28,10,59,29.50
2021,06,28,11,00,29.40
2021,06,28,11,01,29.40
2021,06,28,11,02,29.40
2021,06,28,11,03,29.40
2021,06,28,11,04,29.40
2021,06,28,11,05,29.40
2021,06,28,11,06,29.40
2021,06,28,11,07,29.40
2021,06,28,11,08,29.50
2021,06,28,11,09,29.50
2021,06,28,11,10,29.60
2021,06,28,11,11,29.70
2021,06,28,11,12,29.70
2021,06,28,11,13,29.70
2021,06,28,11,14,29.70
2021,06,28,11,15,29.80
2021,06,28,11,16,29.80
2021,06,28,11,17,29.80
2021,06,28,11,18,29.90
2021,06,28,11,19,29.90
2021,06,28,11,20,30.00
2021,06,28,11,21,30.00
2021,06,28,11,22,30.10
2021,06,28,11,23,30.00
2021,06,28,11,24,30.00
2021,06,28,11,25,29.90
2021,06,28,11,26,29.90
2021,06,28,11,27,29.90
2021,06,28,11,28,29.80
2021,06,28,11,29,29.70
2021,06,28,11,30,29.70
2021,06,28,11,31,29.70
2021,06,28,11,32,29.60
2021,06,28,11,33,29.60
2021,06,28,11,34,29.60
2021,06,28,11,35,29.60
2021,06,28,11,36,29.70
2021,06,28,11,37,29.70
2021,06,28,11,38,29.80
2021,06,28,11,39,29.80
2021,06,28,11,40,29.90
2021,06,28,11,41,29.90
2021,06,28,11,42,30.00
2021,06,28,11,43,30.10
2021,06,28,11,44,30.20
2021,06,28,11,45,30.30
2021,06,28,11,46,30.40
2021,06,28,11,47,30.50
2021,06,28,11,48,30.60
2021,06,28,11,49,30.60
2021,06,28,11,50,30.70
2021,06,28,11,51,30.80
2021,06,28,11,52,30.80
2021,06,28,11,53,30.80
2021,06,28,11,54,30.80
2021,06,28,11,55,30.80
2021,06,28,11,56,30.70
2021,06,28,11,57,30.70
2021,06,28,11,58,30.70
2021,06,28,11,59,30.70
2021,06,28,12,00,30.70
2021,06,28,12,01,30.70
2021,06,28,12,02,30.70
2021,06,28,12,03,30.70
2021,06,28,12,04,30.70
2021,06,28,12,05,30.70
2021,06,28,12,06,30.60
2021,06,28,12,07,30.60
2021,06,28,12,08,30.60
2021,06,28,12,09,30.60
2021,06,28,12,10,30.70
2021,06,28,12,11,30.70
2021,06,28,12,12,30.70
2021,06,28,12,13,30.70
2021,06,28,12,14,30.80
2021,06,28,12,15,30.90
2021,06,28,12,16,31.00
2021,06,28,12,17,31.10
2021,06,28,12,18,31.20
2021,06,28,12,19,31.30
2021,06,28,12,20,31.30
2021,06,28,12,21,31.40
2021,06,28,12,22,31.50
2021,06,28,12,23,31.70
2021,06,28,12,24,31.90
2021,06,28,12,25,32.10
2021,06,28,12,26,32.20
2021,06,28,12,27,32.30
2021,06,28,12,28,32.30
2021,06,28,12,29,32.40
2021,06,28,12,30,32.40
2021,06,28,12,31,32.50
2021,06,28,12,32,32.60
2021,06,28,12,33,32.70
2021,06,28,12,34,32.80
2021,06,28,12,35,32.80
2021,06,28,12,36,32.80
2021,06,28,12,37,32.80
2021,06,28,12,38,32.70
2021,06,28,12,39,32.60
2021,06,28,12,40,32.60
2021,06,28,12,41,32.50
2021,06,28,12,42,32.40
2021,06,28,12,43,32.50
2021,06,28,12,44,32.50
2021,06,28,12,45,32.60
2021,06,28,12,46,32.70
2021,06,28,12,47,32.70
2021,06,28,12,48,32.70
2021,06,28,12,49,32.60
2021,06,28,12,50,32.60
2021,06,28,12,51,32.50
2021,06,28,12,52,32.40
2021,06,28,12,53,32.30
2021,06,28,12,54,32.20
2021,06,28,12,55,32.10
2021,06,28,12,56,32.10
2021,06,28,12,57,32.00
2021,06,28,12,58,32.00
2021,06,28,12,59,31.90
2021,06,28,13,00,31.90
2021,06,28,13,01,31.90
2021,06,28,13,02,31.90
2021,06,28,13,03,31.90
2021,06,28,13,04,31.90
2021,06,28,13,05,31.90
2021,06,28,13,06,32.00
2021,06,28,13,07,32.10
2021,06,28,13,08,32.10
2021,06,28,13,09,32.20
2021,06,28,13,10,32.40
2021,06,28,13,11,32.50
2021,06,28,13,12,32.50
2021,06,28,13,13,32.60
2021,06,28,13,14,32.70
2021,06,28,13,15,32.90
2021,06,28,13,16,33.00
2021,06,28,13,17,33.10
2021,06,28,13,18,33.10
2021,06,28,13,19,33.00
2021,06,28,13,20,32.90
2021,06,28,13,21,32.90
2021,06,28,13,22,32.80
2021,06,28,13,23,32.80
2021,06,28,13,24,32.80
2021,06,28,13,25,32.70
2021,06,28,13,26,32.70
2021,06,28,13,27,32.70
2021,06,28,13,28,32.60
2021,06,28,13,29,32.60
2021,06,28,13,30,32.70
2021,06,28,13,31,32.70
2021,06,28,13,32,32.70
2021,06,28,13,33,32.80
2021,06,28,13,34,32.80
2021,06,28,13,35,32.90
2021,06,28,13,36,33.00
2021,06,28,13,37,33.00
2021,06,28,13,38,33.10
2021,06,28,13,39,33.20
2021,06,28,13,40,33.20
2021,06,28,13,41,33.30
2021,06,28,13,42,33.40
2021,06,28,13,43,33.50
2021,06,28,13,44,33.50
2021,06,28,13,45,33.70
2021,06,28,13,46,33.80
2021,06,28,13,47,33.90
2021,06,28,13,48,33.90
2021,06,28,13,49,34.00
2021,06,28,13,50,34.00
2021,06,28,13,51,34.00
2021,06,28,13,52,33.90
2021,06,28,13,53,34.00
2021,06,28,13,54,34.00
2021,06,28,13,55,34.10
2021,06,28,13,56,34.10
2021,06,28,13,57,34.20
2021,06,28,13,58,34.20
2021,06,28,13,59,34.20
2021,06,28,14,00,34.20
2021,06,28,14,01,34.20
2021,06,28,14,02,34.30
2021,06,28,14,03,34.30
2021,06,28,14,04,34.20
2021,06,28,14,05,34.20
2021,06,28,14,06,34.20
2021,06,28,14,07,34.20
2021,06,28,14,08,34.20
2021,06,28,14,09,34.20
2021,06,28,14,10,34.20
2021,06,28,14,11,34.20
2021,06,28,14,12,34.20
2021,06,28,14,13,34.30
2021,06,28,14,14,34.30
2021,06,28,14,15,34.30
2021,06,28,14,16,34.40
2021,06,28,14,17,34.40
2021,06,28,14,18,34.40
2021,06,28,14,19,34.40
2021,06,28,14,20,34.40
2021,06,28,14,21,34.40
2021,06,28,14,22,34.40
2021,06,28,14,23,34.50
2021,06,28,14,24,34.50
2021,06,28,14,25,34.50
2021,06,28,14,26,34.50
2021,06,28,14,27,34.40
2021,06,28,14,28,34.50
2021,06,28,14,29,34.60
2021,06,28,14,30,34.60
2021,06,28,14,31,34.70
2021,06,28,14,32,34.70
2021,06,28,14,33,34.70
2021,06,28,14,34,34.70
2021,06,28,14,35,34.80
2021,06,28,14,36,34.80
2021,06,28,14,37,34.70
2021,06,28,14,38,34.70
2021,06,28,14,39,34.80
2021,06,28,14,40,34.80
2021,06,28,14,41,34.90
2021,06,28,14,42,34.90
2021,06,28,14,43,35.00
2021,06,28,14,44,35.10
2021,06,28,14,45,35.20
2021,06,28,14,46,35.10
2021,06,28,14,47,35.00
2021,06,28,14,48,35.00
2021,06,28,14,49,34.90
2021,06,28,14,50,35.00
2021,06,28,14,51,35.10
2021,06,28,14,52,35.20
2021,06,28,14,53,35.20
2021,06,28,14,54,35.20
2021,06,28,14,55,35.20
2021,06,28,14,56,35.10
2021,06,28,14,57,35.10
2021,06,28,14,58,35.10
2021,06,28,14,59,35.20
2021,06,28,15,00,35.20
2021,06,28,15,01,35.30
2021,06,28,15,02,35.40
2021,06,28,15,03,35.50
2021,06,28,15,04,35.60
2021,06,28,15,05,35.60
2021,06,28,15,06,35.60
2021,06,28,15,07,35.60
2021,06,28,15,08,35.60
2021,06,28,15,09,35.70
2021,06,28,15,10,35.70
2021,06,28,15,11,35.70
2021,06,28,15,12,35.70
2021,06,28,15,13,35.70
2021,06,28,15,14,35.70
2021,06,28,15,15,35.70
2021,06,28,15,16,35.70
2021,06,28,15,17,35.80
2021,06,28,15,18,35.90
2021,06,28,15,19,36.00
2021,06,28,15,20,36.20
2021,06,28,15,21,36.40
2021,06,28,15,22,36.60
2021,06,28,15,23,36.80
2021,06,28,15,24,36.90
2021,06,28,15,25,36.90
2021,06,28,15,26,37.00
2021,06,28,15,27,37.00
2021,06,28,15,28,37.00
2021,06,28,15,29,37.00
2021,06,28,15,30,37.00
2021,06,28,15,31,36.90
2021,06,28,15,32,36.90
2021,06,28,15,33,36.80
2021,06,28,15,34,36.80
2021,06,28,15,35,36.80
2021,06,28,15,36,36.80
2021,06,28,15,37,36.70
2021,06,28,15,38,36.60
2021,06,28,15,39,36.50
2021,06,28,15,40,36.40
2021,06,28,15,41,36.30
2021,06,28,15,42,36.30
2021,06,28,15,43,36.30
2021,06,28,15,44,36.30
2021,06,28,15,45,36.30
2021,06,28,15,46,36.30
2021,06,28,15,47,36.30
2021,06,28,15,48,36.30
2021,06,28,15,49,36.20
2021,06,28,15,50,36.20
2021,06,28,15,51,36.20
2021,06,28,15,52,36.20
2021,06,28,15,53,36.10
2021,06,28,15,54,36.10
2021,06,28,15,55,36.00
2021,06,28,15,56,36.00
2021,06,28,15,57,35.90
2021,06,28,15,58,35.90
2021,06,28,15,59,35.90
2021,06,28,16,00,35.90
2021,06,28,16,01,35.90
2021,06,28,16,02,35.80
2021,06,28,16,03,35.70
2021,06,28,16,04,35.70
2021,06,28,16,05,35.80
2021,06,28,16,06,35.80
2021,06,28,16,07,35.90
2021,06,28,16,08,35.90
2021,06,28,16,09,36.00
2021,06,28,16,10,36.00
2021,06,28,16,11,36.10
2021,06,28,16,12,36.20
2021,06,28,16,13,36.20
2021,06,28,16,14,36.10
2021,06,28,16,15,36.10
2021,06,28,16,16,36.10
2021,06,28,16,17,36.00
2021,06,28,16,18,36.00
2021,06,28,16,19,35.90
2021,06,28,16,20,35.90
2021,06,28,16,21,35.90
2021,06,28,16,22,35.90
2021,06,28,16,23,35.90
2021,06,28,16,24,35.80
2021,06,28,16,25,35.80
2021,06,28,16,26,35.80
2021,06,28,16,27,35.70
2021,06,28,16,28,35.60
2021,06,28,16,29,35.60
2021,06,28,16,30,35.60
2021,06,28,16,31,35.50
2021,06,28,16,32,35.50
2021,06,28,16,33,35.40
2021,06,28,16,34,35.30
2021,06,28,16,35,35.20
2021,06,28,16,36,35.10
2021,06,28,16,37,35.00
2021,06,28,16,38,35.00
2021,06,28,16,39,35.00
2021,06,28,16,40,35.00
2021,06,28,16,41,34.90
2021,06,28,16,42,34.90
2021,06,28,16,43,34.90
2021,06,28,16,44,34.90
2021,06,28,16,45,34.80
2021,06,28,16,46,34.80
2021,06,28,16,47,34.80
2021,06,28,16,48,34.70
2021,06,28,16,49,34.60
2021,06,28,16,50,34.60
2021,06,28,16,51,34.50
2021,06,28,16,52,34.40
2021,06,28,16,53,34.40
2021,06,28,16,54,34.30
2021,06,28,16,55,34.30
2021,06,28,16,56,34.20
2021,06,28,16,57,34.10
2021,06,28,16,58,33.90
2021,06,28,16,59,33.80
2021,06,28,17,00,33.70
2021,06,28,17,01,33.60
2021,06,28,17,02,33.50
2021,06,28,17,03,33.40
2021,06,28,17,04,33.40
2021,06,28,17,05,33.40
2021,06,28,17,06,33.40
2021,06,28,17,07,33.50
2021,06,28,17,08,33.50
2021,06,28,17,09,33.50
2021,06,28,17,10,33.50
2021,06,28,17,11,33.50
2021,06,28,17,12,33.40
2021,06,28,17,13,33.40
2021,06,28,17,14,33.40
2021,06,28,17,15,33.40
2021,06,28,17,16,33.50
2021,06,28,17,17,33.50
2021,06,28,17,18,33.50
2021,06,28,17,19,33.60